Simultaneous Nadir Overpasses (SNOs) Predictions

Prediction of SNOs between GOES-16 and AQUA Satellite Orbit:

Table of predicted SNOs for the next 14.0 days since TLE Epoch: 6/25/2022
Index Date Time (GOES-16) GOES-16 Lat,Lon AQUA Lat,Lon Distance(km) Time Diff (sec)
1 06/25/2022 06:34:03 0.02, -75.20 -0.18, -74.17 115.99 80
2 06/25/2022 18:58:01 -0.02, -75.20 -0.93, -79.33 470.46 80
3 06/27/2022 06:21:29 0.01, -75.20 -0.87, -71.12 464.15 80
4 06/27/2022 18:45:27 -0.01, -75.21 -0.24, -76.28 122.17 80
5 06/29/2022 18:32:52 0.00, -75.22 0.40, -73.22 226.68 80
6 06/30/2022 06:54:02 -0.00, -75.22 0.66, -78.36 356.70 80
7 07/02/2022 06:41:27 -0.01, -75.23 0.00, -75.30 6.97 80
8 07/04/2022 06:26:12 -0.01, -75.26 -0.67, -72.24 343.67 80
9 07/04/2022 18:47:30 0.01, -75.27 -0.43, -77.40 242.19 80
10 07/06/2022 18:37:34 0.00, -75.30 0.20, -74.33 109.43 80
11 07/07/2022 06:58:42 -0.00, -75.30 0.91, -79.46 473.12 80
12 07/08/2022 18:24:59 0.01, -75.33 0.90, -71.28 461.29 80
